アトラス彗星

C/2019 F2 ( ATLAS )

English version
Home page
Updated on September 17, 2019

---------------------------------------------------------------------

・ プロフィール

発見日 2019年3月26日
発見光度 17.5等
発見者 Asteroid Terrestrial-Impact Last Alert System (ATLAS) search program

・ 写真集

・ 軌道要素

Epoch 2019 Aug. 25.0 TT = JDT 2458720.5
T 2019 Sept. 8.90752 TT                                 Williams
q   2.2328218            (2000.0)            P               Q
n   0.01466750     Peri.   10.95793     -0.99214784     +0.12280980
a  16.5284414      Node   175.86961     -0.12425927     -0.98941828
e   0.8649103      Incl.   19.18840     +0.01422347     -0.07726074
P  67.2
From 570 observations 2019 Feb. 26-June 26, mean residual 0".4.

・ 星図

・ 光度変化

        m1 = 10.2 + 5 logΔ + 10.0 log r

---------------------------------------------------------------------

軌道要素はM.P.E.C. 2019-Q135に掲載されたものです。
星図はステラナビゲータ Ver.10 (アストロアーツ) で作成したものです。
光度グラフはComet for Windowsで作成したものです。

---------------------------------------------------------------------

Copyright(C) Seiichi Yoshida (comet@aerith.net). All rights reserved.